I5NOD Altopascio Lu IT current weather conditions

sailwx.info

Wind from 328 at 1 knots gusting 6

Air temperature 31.1° C
Dewpoint -5.5° C

Last reported at 2020-Aug-12 16:50 UTC.
Time now 2020-Aug-12 17:41 UTC

Location: N 43°49' E 010°41'.
View on Google Maps.

See reports from other nearby stations

  
Tides and Currents Weather Stations Pressure Air Temp Water Temp Dewpoint Dewpoint Depression Visibility Wind Speed Wind Dir Waves Ship Positions
date/time (UTC)wind fromknots sea level pressurealtimeterstation pressurevisibilityair tempwater tempwave heightnotes
2020-Aug-12 16:50 328 1 gusting 6 31.1
2020-Aug-12 16:45 331 31.1
2020-Aug-12 16:30 337 5 gusting 7 31.1
2020-Aug-12 16:25 318 4 gusting 13 31.7
2020-Aug-12 16:20 315 6 gusting 11 31.7
2020-Aug-12 16:15 314 7 gusting 13 31.7
2020-Aug-12 16:10 335 6 gusting 11 32.2
2020-Aug-12 16:05 298 6 gusting 13 32.2
2020-Aug-12 16:00 321 6 gusting 13 32.2
2020-Aug-12 15:55 307 5 gusting 11 32.2
2020-Aug-12 15:50 310 6 gusting 11 32.8
2020-Aug-12 15:43 307 6 gusting 11 32.8
2020-Aug-12 15:40 294 6 gusting 13 32.8
2020-Aug-12 15:35 302 6 gusting 13 33.3
2020-Aug-12 15:28 302 6 gusting 10 33.3
2020-Aug-12 15:25 335 5 gusting 13 33.3
2020-Aug-12 15:20 293 6 gusting 12 33.3
2020-Aug-12 15:15 316 6 gusting 11 33.3
2020-Aug-12 15:05 313 6 gusting 11 33.9
2020-Aug-12 14:58 316 6 gusting 11 33.9
2020-Aug-12 14:55 339 6 gusting 11 33.9
2020-Aug-12 14:45 347 6 gusting 13 34.4
2020-Aug-12 14:35 274 7 gusting 14 34.4
2020-Aug-12 14:28 315 6 gusting 11 35.0
2020-Aug-12 14:25 292 6 gusting 13 35.0
2020-Aug-12 14:20 310 6 gusting 14 35.6
2020-Aug-12 14:13 293 2 gusting 11 35.6
2020-Aug-12 14:05 284 6 gusting 10 35.6
2020-Aug-12 14:00 282 6 gusting 13 36.1
2020-Aug-12 13:55 320 6 gusting 13 36.1
2020-Aug-12 13:45 278 4 gusting 13 36.1
2020-Aug-12 13:40 331 5 gusting 13 36.1
2020-Aug-12 13:30 269 35.6
2020-Aug-12 13:25 160 0 gusting 7 35.6
2020-Aug-12 13:20 253 0 gusting 6 36.1
2020-Aug-12 13:15 192 36.1
2020-Aug-12 13:10 344 36.1
2020-Aug-12 13:05 311 4 gusting 8 36.7
2020-Aug-12 13:00 253 36.7
2020-Aug-12 12:55 320 0 gusting 7 36.1
2020-Aug-12 12:50 191 36.1
2020-Aug-12 12:45 194 36.1
2020-Aug-12 12:40 317 36.1
2020-Aug-12 12:31 260 1 gusting 6 35.6
2020-Aug-12 12:30 282 1 gusting 6 35.6
2020-Aug-12 12:25 201 4 gusting 8 35.6
2020-Aug-12 12:20 289 5 gusting 7 35.6
2020-Aug-12 12:15 229 2 gusting 6 35.0
2020-Aug-12 12:10 220 0 gusting 6 35.0
2020-Aug-12 12:05 216 35.6
2020-Aug-12 12:00 260 35.6
2020-Aug-12 11:55 189 35.6
2020-Aug-12 11:50 184 35.6
2020-Aug-12 11:40 216 0 gusting 6 36.1
2020-Aug-12 11:35 188 36.7
2020-Aug-12 11:25 295 36.7
2020-Aug-12 11:20 276 36.7
2020-Aug-12 11:15 185 36.7
2020-Aug-12 11:10 252 36.7
2020-Aug-12 11:03 310 35.6
2020-Aug-12 11:00 060 35.6
2020-Aug-12 10:50 210 35.6
2020-Aug-12 10:40 281 35.6
2020-Aug-12 10:35 319 35.0
2020-Aug-12 10:30 070 35.0
2020-Aug-12 10:20 061 35.0
2020-Aug-12 10:15 326 33.9
2020-Aug-12 10:10 340 33.9
2020-Aug-12 10:05 324 33.9
2020-Aug-12 09:50 303 32.2
2020-Aug-12 09:45 217 31.7
2020-Aug-12 09:40 159 31.7
2020-Aug-12 09:35 166 31.7
2020-Aug-12 09:25 136 32.2
2020-Aug-12 09:18 094 31.7
2020-Aug-12 09:15 094 31.1
2020-Aug-12 09:05 165 31.7
2020-Aug-12 08:50 250 31.1
2020-Aug-12 08:45 174 30.6
2020-Aug-12 08:35 095 30.0
2020-Aug-12 08:30 018 30.0
2020-Aug-12 08:20 083 29.4
2020-Aug-12 08:10 186 28.3
2020-Aug-12 08:05 175 28.3
2020-Aug-12 07:55 110 27.8
2020-Aug-12 07:50 110 26.7
2020-Aug-12 07:45 110 26.7
2020-Aug-12 07:40 110 26.1
2020-Aug-12 07:31 110 25.6
2020-Aug-12 07:30 110 25.6
2020-Aug-12 07:20 118 25.0
2020-Aug-12 07:15 140 24.4
2020-Aug-12 07:10 140 23.9
2020-Aug-12 07:01 134 23.3
2020-Aug-12 07:00 123 23.3
2020-Aug-12 06:55 133 22.8
2020-Aug-12 06:50 134 22.8
2020-Aug-12 06:45 133 22.8
2020-Aug-12 06:40 134 22.2
2020-Aug-12 06:35 134 22.2
2020-Aug-12 06:25 134 21.7
2020-Aug-12 06:16 134 20.6
2020-Aug-12 06:15 134 20.6
2020-Aug-12 06:01 134 20.0
2020-Aug-12 05:55 134 20.0
2020-Aug-12 05:50 134 19.4
2020-Aug-12 05:45 134 19.4
2020-Aug-12 05:40 134 19.4
2020-Aug-12 05:35 134 18.9
2020-Aug-12 05:30 134 18.9
2020-Aug-12 05:25 134 18.9
2020-Aug-12 05:20 134 18.9
2020-Aug-12 05:15 134 18.9
2020-Aug-12 05:10 134 18.9
2020-Aug-12 05:05 134 18.9
2020-Aug-12 05:00 134 18.9
2020-Aug-12 04:55 134 18.9
2020-Aug-12 04:50 134 18.9
2020-Aug-12 04:45 134 18.3
2020-Aug-12 04:35 134 18.3
2020-Aug-12 04:30 134 18.3
2020-Aug-12 04:20 134 18.3
2020-Aug-12 04:15 134 18.9
2020-Aug-12 04:05 134 18.9
2020-Aug-12 03:50 134 19.4
2020-Aug-12 03:45 134 19.4
2020-Aug-12 03:35 134 19.4
2020-Aug-12 03:25 134 19.4
2020-Aug-12 03:16 134 19.4
2020-Aug-12 03:15 134 19.4
2020-Aug-12 03:10 134 19.4
2020-Aug-12 03:05 134 19.4
2020-Aug-12 03:00 134 19.4
2020-Aug-12 02:50 134 19.4
2020-Aug-12 02:40 134 19.4
2020-Aug-12 02:35 134 21.1
2020-Aug-12 02:20 134 21.1
2020-Aug-12 02:15 134 21.1
2020-Aug-12 02:10 134 21.1
2020-Aug-12 02:05 134 21.1
2020-Aug-12 02:00 134 21.1
2020-Aug-12 01:55 134 21.1
2020-Aug-12 01:50 134 21.1
2020-Aug-12 01:45 134 21.1
2020-Aug-12 01:40 134 21.1
2020-Aug-12 01:35 134 21.1
2020-Aug-12 01:30 134 21.1
2020-Aug-12 01:20 134 21.1
2020-Aug-12 01:10 134 21.1
2020-Aug-12 01:05 134 21.1
2020-Aug-12 00:50 134 21.1
2020-Aug-12 00:45 134 21.1
2020-Aug-12 00:40 134 21.1
2020-Aug-12 00:35 134 21.1
2020-Aug-12 00:25 134 21.1
2020-Aug-12 00:20 134 21.1
2020-Aug-12 00:15 134 21.1
2020-Aug-12 00:05 134 21.1
2020-Aug-11 23:50 134 21.7
2020-Aug-11 23:45 134 21.7
2020-Aug-11 23:40 134 21.7
2020-Aug-11 23:35 134 21.1
2020-Aug-11 23:25 134 21.7
2020-Aug-11 23:16 134 22.2
2020-Aug-11 23:15 134 22.2
2020-Aug-11 23:10 134 22.8
2020-Aug-11 23:05 197 22.8
2020-Aug-11 23:00 197 22.8
2020-Aug-11 22:55 197 22.8
2020-Aug-11 22:50 197 22.8
2020-Aug-11 22:35 197 22.8
2020-Aug-11 22:25 197 22.8
2020-Aug-11 22:16 197 22.8
2020-Aug-11 22:15 197 22.8
2020-Aug-11 22:10 197 23.3
2020-Aug-11 22:00 209 23.3
2020-Aug-11 21:55 259 23.3
2020-Aug-11 21:50 259 23.9
2020-Aug-11 21:35 297 23.9
2020-Aug-11 21:30 309 23.9
2020-Aug-11 21:25 309 23.9
2020-Aug-11 21:16 309 24.4
2020-Aug-11 21:15 310 24.4
2020-Aug-11 21:01 309 25.0
2020-Aug-11 21:00 309 25.0
2020-Aug-11 20:55 309 25.0
2020-Aug-11 20:50 339 25.6
2020-Aug-11 20:40 357 25.6
2020-Aug-11 20:31 327 25.6
2020-Aug-11 20:30 327 25.6
2020-Aug-11 20:25 327 25.6
2020-Aug-11 20:20 327 25.6
2020-Aug-11 20:15 327 25.6
2020-Aug-11 20:05 318 25.6
2020-Aug-11 20:00 328 25.6
2020-Aug-11 19:55 302 2 gusting 7 26.1
2020-Aug-11 19:50 303 1 gusting 6 26.1
2020-Aug-11 19:45 306 26.1
2020-Aug-11 19:40 290 2 gusting 6 26.1
2020-Aug-11 19:35 306 26.7
2020-Aug-11 19:30 302 26.7
2020-Aug-11 19:25 321 26.7
2020-Aug-11 19:20 27.2
2020-Aug-11 19:15 301 0 gusting 5 27.2
2020-Aug-11 19:10 292 27.2
2020-Aug-11 19:05 328 27.2
2020-Aug-11 19:00 320 27.8
2020-Aug-11 18:55 305 27.8
2020-Aug-11 18:46 316 2 gusting 6 27.8
2020-Aug-11 18:31 317 1 gusting 8 28.3
2020-Aug-11 18:30 309 5 gusting 10 28.3
2020-Aug-11 18:25 321 0 gusting 6 28.3
2020-Aug-11 18:16 306 2 28.9
2020-Aug-11 18:15 314 4 gusting 10 28.9
2020-Aug-11 18:05 308 29.4
2020-Aug-11 18:00 322 29.4
2020-Aug-11 17:46 313 1 gusting 6 30.0
2020-Aug-11 17:45 295 4 gusting 8 30.0
2020-Aug-11 17:31 325 5 gusting 7 30.0
2020-Aug-11 17:30 331 3 gusting 13 30.0
2020-Aug-11 17:25 305 3 gusting 13 30.6
2020-Aug-11 17:16 286 2 gusting 4 31.1
2020-Aug-11 17:10 310 6 gusting 14 31.1
2020-Aug-11 17:01 305 6 gusting 11 31.7
2020-Aug-11 17:00 302 6 gusting 11 31.7
2020-Aug-11 16:50 310 4 gusting 11 31.7
2020-Aug-11 16:31 296 6 gusting 8 31.7
2020-Aug-11 16:25 318 2 gusting 12 31.7
2020-Aug-11 16:20 290 6 gusting 13 31.7
2020-Aug-11 16:15 278 6 gusting 11 32.2
2020-Aug-11 16:10 316 6 gusting 14 32.2
2020-Aug-11 16:05 291 6 gusting 10 32.2
2020-Aug-11 16:00 310 6 gusting 11 32.2
2020-Aug-11 15:46 319 8 gusting 14 32.8
2020-Aug-11 15:45 297 6 gusting 14 32.8
2020-Aug-11 15:40 291 6 gusting 12 32.8
2020-Aug-11 15:31 319 5 gusting 8 32.8
2020-Aug-11 15:30 303 5 gusting 13 32.8
2020-Aug-11 15:20 294 4 gusting 8 31.7
2020-Aug-11 15:15 285 5 gusting 13 31.7
2020-Aug-11 15:10 293 4 gusting 11 31.7
2020-Aug-11 15:05 319 6 gusting 11 31.1
2020-Aug-11 15:00 292 6 gusting 13 31.1
2020-Aug-11 14:55 326 6 gusting 11 31.7
2020-Aug-11 14:50 318 3 gusting 13 31.7
2020-Aug-11 14:45 317 4 gusting 13 31.7
2020-Aug-11 14:31 318 6 gusting 11 32.2
2020-Aug-11 14:20 332 4 gusting 8 32.8
2020-Aug-11 14:15 338 5 gusting 10 32.8
2020-Aug-11 14:10 305 6 gusting 13 33.9
2020-Aug-11 14:05 330 6 gusting 11 34.4
2020-Aug-11 13:55 298 7 gusting 11 35.0
2020-Aug-11 13:50 285 4 gusting 10 35.6
2020-Aug-11 13:45 338 5 gusting 11 35.6
2020-Aug-11 13:40 326 6 gusting 8 35.6
2020-Aug-11 13:35 316 5 gusting 8 35.6
2020-Aug-11 13:30 304 6 gusting 8 35.6
2020-Aug-11 13:20 271 4 gusting 8 35.6
2020-Aug-11 13:15 272 0 gusting 8 35.6
2020-Aug-11 13:05 256 2 gusting 6 35.0
2020-Aug-11 12:55 196 1 gusting 6 35.0
2020-Aug-11 12:46 284 35.6
2020-Aug-11 12:45 343 35.0
2020-Aug-11 12:35 205 35.6
2020-Aug-11 12:16 271 35.6
2020-Aug-11 12:15 254 35.6
2020-Aug-11 12:05 251 35.6
2020-Aug-11 11:46 243 35.6
2020-Aug-11 11:45 343 35.0
2020-Aug-11 11:40 327 34.4
2020-Aug-11 11:35 239 34.4
2020-Aug-11 11:30 176 34.4
2020-Aug-11 11:25 237 35.0
2020-Aug-11 11:20 271 35.0
2020-Aug-11 11:15 318 34.4
2020-Aug-11 11:10 240 34.4
2020-Aug-11 11:05 187 33.9
2020-Aug-11 10:55 177 33.9
2020-Aug-11 10:50 224 33.3
2020-Aug-11 10:45 224 32.8
2020-Aug-11 10:40 259 1 gusting 6 32.2
2020-Aug-11 10:31 305 31.7
2020-Aug-11 10:25 274 31.1
2020-Aug-11 10:20 166 30.6
2020-Aug-11 10:05 277 30.0
2020-Aug-11 10:00 276 30.0
2020-Aug-11 09:55 259 30.0
2020-Aug-11 09:50 168 29.4
2020-Aug-11 09:40 127 29.4
2020-Aug-11 09:31 128 28.9
2020-Aug-11 09:30 128 28.9
2020-Aug-11 09:25 127 28.3
2020-Aug-11 09:16 127 27.2
2020-Aug-11 09:15 127 27.2
2020-Aug-11 09:10 128 26.7
2020-Aug-11 09:05 131 26.1
2020-Aug-11 09:00 116 25.6
2020-Aug-11 08:55 181 25.6
2020-Aug-11 08:46 160 25.6
2020-Aug-11 08:45 128 25.6
2020-Aug-11 08:40 128 26.1
2020-Aug-11 08:35 128 26.1
2020-Aug-11 08:30 128 26.1
2020-Aug-11 08:16 128 25.6
2020-Aug-11 08:15 128 25.6
2020-Aug-11 08:10 128 25.6
2020-Aug-11 08:05 128 25.6
2020-Aug-11 08:00 128 25.0
2020-Aug-11 07:50 128 25.0
2020-Aug-11 07:45 128 25.6
2020-Aug-11 07:40 128 25.6
2020-Aug-11 07:35 128 25.6
2020-Aug-11 07:25 128 26.1
2020-Aug-11 07:20 128 25.6
2020-Aug-11 07:05 128 25.6
2020-Aug-11 06:55 128 25.0
2020-Aug-11 06:50 128 24.4
2020-Aug-11 06:35 128 24.4
2020-Aug-11 06:25 128 23.3
2020-Aug-11 06:20 128 22.8
2020-Aug-11 06:15 128 22.2
2020-Aug-11 06:10 128 21.7
2020-Aug-11 06:05 128 21.7
2020-Aug-11 06:00 128 21.1
2020-Aug-11 05:55 128 21.1
2020-Aug-11 05:50 128 21.1
2020-Aug-11 05:45 128 20.6
2020-Aug-11 05:40 128 20.6
2020-Aug-11 05:35 128 20.6
2020-Aug-11 05:20 128 20.6
2020-Aug-11 05:15 128 20.0
2020-Aug-11 05:10 128 20.0
2020-Aug-11 05:05 128 20.0
2020-Aug-11 04:55 128 20.0
2020-Aug-11 04:50 128 20.0
2020-Aug-11 04:45 128 20.0
2020-Aug-11 04:40 128 20.0
2020-Aug-11 04:35 128 20.0
2020-Aug-11 04:30 128 20.0
2020-Aug-11 04:25 128 20.0
2020-Aug-11 04:16 128 20.0
2020-Aug-11 04:15 128 20.0
2020-Aug-11 04:05 128 20.0
2020-Aug-11 04:00 128 20.0
2020-Aug-11 03:55 128 20.0
2020-Aug-11 03:50 128 20.0
2020-Aug-11 03:31 128 20.6
2020-Aug-11 03:30 128 20.6
2020-Aug-11 03:20 128 20.6
2020-Aug-11 03:15 128 20.6
2020-Aug-11 03:10 128 20.6
2020-Aug-11 03:05 128 20.6
2020-Aug-11 03:00 128 20.6
2020-Aug-11 02:55 128 20.6
2020-Aug-11 02:50 128 20.6
2020-Aug-11 02:45 128 20.6
2020-Aug-11 02:40 128 20.6
2020-Aug-11 02:35 128 20.6
2020-Aug-11 02:30 128 20.6
2020-Aug-11 02:25 128 20.6
2020-Aug-11 02:16 128 21.1
2020-Aug-11 02:15 128 21.1
2020-Aug-11 02:10 128 21.1
2020-Aug-11 02:01 128 21.1
2020-Aug-11 01:55 128 21.7
2020-Aug-11 01:46 128 21.7
2020-Aug-11 01:45 128 21.7
2020-Aug-11 01:40 128 21.7
2020-Aug-11 01:31 128 21.7
2020-Aug-11 01:16 128 21.7
2020-Aug-11 01:15 128 21.7
2020-Aug-11 01:05 128 22.2
2020-Aug-11 00:55 128 22.2
2020-Aug-11 00:50 128 22.2
2020-Aug-11 00:45 128 22.2
2020-Aug-11 00:35 128 22.2
2020-Aug-11 00:30 128 22.2
2020-Aug-11 00:25 128 22.2
2020-Aug-11 00:20 128 22.8
2020-Aug-11 00:15 128 22.8
2020-Aug-11 00:05 128 23.3
2020-Aug-11 00:00 128 23.3
2020-Aug-10 23:50 128 23.3
2020-Aug-10 23:45 128 22.8
2020-Aug-10 23:35 128 23.3
2020-Aug-10 23:30 128 23.3
2020-Aug-10 23:25 128 23.3
2020-Aug-10 23:16 128 23.3
2020-Aug-10 23:15 128 23.3
2020-Aug-10 23:01 128 23.3
2020-Aug-10 23:00 128 23.3
2020-Aug-10 22:55 128 23.3
2020-Aug-10 22:46 128 23.3
2020-Aug-10 22:45 128 23.3
2020-Aug-10 22:40 128 23.9
2020-Aug-10 22:35 128 23.9
2020-Aug-10 22:25 128 24.4
2020-Aug-10 22:16 128 24.4
2020-Aug-10 22:15 128 24.4
2020-Aug-10 22:10 128 24.4
2020-Aug-10 22:05 128 24.4
2020-Aug-10 21:50 128 24.4
2020-Aug-10 21:45 128 24.4
2020-Aug-10 21:40 128 24.4
2020-Aug-10 21:35 128 24.4
2020-Aug-10 21:25 128 25.0
2020-Aug-10 21:20 128 25.0
2020-Aug-10 21:05 128 25.0
2020-Aug-10 21:00 128 25.0
2020-Aug-10 20:55 128 25.0
2020-Aug-10 20:50 128 25.0
2020-Aug-10 20:35 128 25.6
2020-Aug-10 20:31 128 25.6
2020-Aug-10 20:30 128 25.6
2020-Aug-10 20:25 127 26.1
2020-Aug-10 20:20 139 26.1
2020-Aug-10 20:10 316 26.7
2020-Aug-10 20:01 321 27.2
2020-Aug-10 20:00 323 27.2
2020-Aug-10 19:55 335 27.2
2020-Aug-10 19:50 320 27.2
2020-Aug-10 19:45 307 27.2
2020-Aug-10 19:40 319 27.8
2020-Aug-10 19:35 330 27.8
2020-Aug-10 19:30 336 27.8
2020-Aug-10 19:25 324 27.8
2020-Aug-10 19:16 321 27.8
2020-Aug-10 19:10 324 27.8
2020-Aug-10 19:05 308 27.8
2020-Aug-10 18:55 309 28.3
2020-Aug-10 18:50 304 28.3
2020-Aug-10 18:45 294 28.3
2020-Aug-10 18:40 283 28.3
2020-Aug-10 18:35 319 0 gusting 7 28.3
2020-Aug-10 18:16 303 2 gusting 7 28.9
2020-Aug-10 18:05 299 0 gusting 7 29.4
2020-Aug-10 17:55 303 2 gusting 8 29.4
2020-Aug-10 17:50 319 2 gusting 6 30.0
2020-Aug-10 17:45 306 1 gusting 8 30.0
2020-Aug-10 17:40 292 1 gusting 8 30.0
2020-Aug-10 17:35 312 4 gusting 10 30.0
2020-Aug-10 17:30 315 4 gusting 10 30.6
2020-Aug-10 17:25 267 4 gusting 11 30.6
2020-Aug-10 17:16 298 4 gusting 8 30.6
2020-Aug-10 17:15 311 4 gusting 11 30.6
2020-Aug-10 17:10 296 6 gusting 13 31.1
2020-Aug-10 17:01 301 5 gusting 10 31.1
2020-Aug-10 17:00 284 6 gusting 11 31.1